TimeEST,TemperatureF,Dew PointF,Humidity,Sea Level PressureIn,VisibilityMPH,Wind Direction,Wind SpeedMPH,Gust SpeedMPH,PrecipitationIn,Events,Conditions,WindDirDegrees,DateUTC
12:51 AM,25.0,12.9,60,29.70,10.0,West,9.2,20.7,N/A,,Clear,280,2013-02-21 05:51:00
1:51 AM,25.0,12.9,60,29.69,10.0,West,9.2,16.1,N/A,,Clear,270,2013-02-21 06:51:00
2:51 AM,24.1,12.9,62,29.69,10.0,Variable,4.6,-,N/A,,Clear,0,2013-02-21 07:51:00
3:51 AM,23.0,12.9,65,29.70,10.0,West,8.1,19.6,N/A,,Clear,270,2013-02-21 08:51:00
4:51 AM,23.0,10.0,58,29.70,10.0,West,8.1,20.7,N/A,,Clear,280,2013-02-21 09:51:00
5:51 AM,21.9,8.1,55,29.73,10.0,West,8.1,19.6,N/A,,Clear,280,2013-02-21 10:51:00
6:51 AM,21.0,8.1,57,29.75,10.0,West,11.5,17.3,N/A,,Clear,280,2013-02-21 11:51:00
7:51 AM,21.0,9.0,60,29.75,10.0,WNW,13.8,25.3,N/A,,Clear,300,2013-02-21 12:51:00
8:51 AM,21.0,6.1,53,29.76,10.0,WNW,15.0,31.1,N/A,,Scattered Clouds,290,2013-02-21 13:51:00
9:51 AM,23.0,7.0,50,29.76,10.0,NW,17.3,26.5,N/A,,Clear,310,2013-02-21 14:51:00
10:51 AM,24.1,7.0,48,29.77,10.0,WNW,17.3,26.5,N/A,,Clear,300,2013-02-21 15:51:00
11:51 AM,26.1,7.0,44,29.78,10.0,WNW,15.0,23.0,N/A,,Partly Cloudy,300,2013-02-21 16:51:00
12:51 PM,26.1,9.0,49,29.79,10.0,NW,16.1,20.7,N/A,,Overcast,310,2013-02-21 17:51:00
1:51 PM,27.0,10.0,49,29.80,10.0,NW,17.3,24.2,N/A,,Mostly Cloudy,310,2013-02-21 18:51:00
2:51 PM,27.0,10.0,49,29.81,10.0,NW,15.0,23.0,N/A,,Overcast,310,2013-02-21 19:51:00
3:51 PM,26.1,10.9,53,29.85,10.0,NW,17.3,27.6,N/A,,Overcast,320,2013-02-21 20:51:00
4:51 PM,26.1,10.0,51,29.90,10.0,NW,17.3,23.0,N/A,,Overcast,310,2013-02-21 21:51:00
5:51 PM,25.0,10.0,53,29.94,10.0,NW,12.7,-,N/A,,Mostly Cloudy,310,2013-02-21 22:51:00
6:51 PM,24.1,10.9,57,29.98,10.0,NW,13.8,24.2,N/A,,Mostly Cloudy,320,2013-02-21 23:51:00
7:51 PM,24.1,12.0,60,30.02,10.0,NNW,17.3,-,N/A,,Mostly Cloudy,330,2013-02-22 00:51:00
8:51 PM,25.0,12.9,60,30.06,10.0,NW,15.0,-,N/A,,Scattered Clouds,320,2013-02-22 01:51:00
10:51 PM,24.1,14.0,65,30.10,10.0,NW,8.1,-,N/A,,Clear,320,2013-02-22 03:51:00
11:51 PM,24.1,14.0,65,30.16,10.0,NW,9.2,-,N/A,,Clear,320,2013-02-22 04:51:00